Omaha, Nebraska, United States (68101)
Lat: 41.26N, Lon: 95.94W
Wx Zone: NEZ052
Local Info
Past Weather Observations for Today

NOTE: This archive is for the closest National Weather Service station to Omaha. Information may differ from the station used for current weather conditions.

Click here for Long-term Archive

Time Weather Temperature Dewpoint Humidity Pressure Winds Precip Visibility
22:52
Overcast
75°F / 24°C 73°F / 23°C 94% 29.92 in
(1013 mb)
ENE 8.1 mph
(ENE 13 kph)
- 7SM
21:52
Mostly Cloudy
Fog And Mist
75°F / 24°C 73°F / 23°C 94% 29.95 in
(1014 mb)
N 6.9 mph
(N 11 kph)
- 6SM
20:52
Mostly Cloudy
77°F / 25°C 73°F / 23°C 89% 29.95 in
(1014 mb)
Calm - 7SM
19:52
Overcast
77°F / 25°C 73°F / 23°C 89% 29.92 in
(1013 mb)
SE 5.8 mph
(SE 9 kph)
- 7SM
18:52
Overcast
Fog And Mist
75°F / 24°C 73°F / 23°C 94% 29.92 in
(1013 mb)
N 5.8 mph
(N 9 kph)
- 6SM
17:52
Overcast
79°F / 26°C 75°F / 24°C 89% 29.92 in
(1013 mb)
N 3.5 mph
(N 6 kph)
0.00 in
(0.00 mm)
9SM
17:15
Overcast
Light Rain
79°F / 26°C 73°F / 23°C 84% 29.89 in
(1012 mb)
ENE 10.4 mph
(ENE 17 kph)
0.00 in
(0.00 mm)
9SM
16:52
Overcast
Thunder Storms
77°F / 25°C 73°F / 23°C 89% 29.89 in
(1012 mb)
SW 5.8 mph
(SW 9 kph)
0.57 in
(14.48 mm)
7SM
16:12
Overcast
Thunder Storms
79°F / 26°C 75°F / 24°C 89% 29.92 in
(1013 mb)
S 15 mph
(S 24 kph)
0.23 in
(5.84 mm)
2SM
16:00
Overcast
Thunder Storms
79°F / 26°C 73°F / 23°C 84% 29.92 in
(1013 mb)
S 12.7 mph
(S 20 kph)
0.01 in
(0.25 mm)
2SM
15:52
Overcast
Thunder Storms
79°F / 26°C 73°F / 23°C 84% 29.92 in
(1013 mb)
SSW 5.8 mph
(SSW 9 kph)
0.21 in
(5.33 mm)
5SM
15:25
Mostly Cloudy
Thunder Storms
81°F / 27°C 72°F / 22°C 74% 29.92 in
(1013 mb)
S 8.1 mph
(S 13 kph)
0.05 in
(1.27 mm)
4SM
15:11
Mostly Cloudy
Thunder Storms
88°F / 31°C 75°F / 24°C 66% 29.92 in
(1013 mb)
ESE 13.8 mph
(ESE 22 kph)
0.00 in
(0.00 mm)
7SM
14:52
Mostly Cloudy
Partly Cloudy
90°F / 32°C 75°F / 24°C 63% 29.89 in
(1012 mb)
E 9.2 mph
(E 15 kph)
- 10SM
13:52
Mostly Cloudy
91°F / 33°C 75°F / 24°C 59% 29.89 in
(1012 mb)
N 9.2 mph
(N 15 kph)
- 10SM
12:52
Mostly Cloudy
91°F / 33°C 75°F / 24°C 59% 29.92 in
(1013 mb)
N 6.9 mph
(N 11 kph)
- 10SM
11:52
Partly Cloudy
90°F / 32°C 73°F / 23°C 59% 29.92 in
(1013 mb)
Variable 3.5 mph
(Variable 6 kph)
- 10SM
10:52
Partly Cloudy
86°F / 30°C 73°F / 23°C 66% 29.92 in
(1013 mb)
SSE 5.8 mph
(SSE 9 kph)
- 10SM
09:52
Partly Cloudy
84°F / 29°C 73°F / 23°C 70% 29.92 in
(1013 mb)
Variable 4.6 mph
(Variable 7 kph)
- 10SM
08:52
Mostly Cloudy
81°F / 27°C 72°F / 22°C 74% 29.92 in
(1013 mb)
Calm - 10SM
07:52
Mostly Cloudy
77°F / 25°C 72°F / 22°C 83% 29.92 in
(1013 mb)
SE 6.9 mph
(SE 11 kph)
- 10SM
06:52
Mostly Cloudy
75°F / 24°C 70°F / 21°C 83% 29.92 in
(1013 mb)
Calm - 10SM
05:52
Partly Cloudy
73°F / 23°C 70°F / 21°C 89% 29.92 in
(1013 mb)
Calm - 10SM
04:52
Partly Cloudy
73°F / 23°C 70°F / 21°C 89% 29.89 in
(1012 mb)
Calm - 10SM
03:52
Mostly Cloudy
73°F / 23°C 70°F / 21°C 89% 29.89 in
(1012 mb)
SSE 4.6 mph
(SSE 7 kph)
- 10SM
02:52
Overcast
75°F / 24°C 72°F / 22°C 89% 29.89 in
(1012 mb)
SSE 6.9 mph
(SSE 11 kph)
- 10SM
01:52
Overcast
75°F / 24°C 72°F / 22°C 89% 29.89 in
(1012 mb)
Calm - 10SM
00:52
Overcast
75°F / 24°C 73°F / 23°C 94% 29.86 in
(1011 mb)
N 6.9 mph
(N 11 kph)
0.00 in
(0.00 mm)
10SM
00:44
Overcast
77°F / 25°C 73°F / 23°C 89% 29.86 in
(1011 mb)
N 5.8 mph
(N 9 kph)
0.00 in
(0.00 mm)
10SM
Time Weather Temperature Dewpoint Humidity Pressure Winds Precip Visibility


Weather for websites

WeatherForYou.com, LLC is not responsible for any damages or problems caused by this service. Current weather conditions are obtained from the closest station including government and personal stations which may have varying degrees of accuracy. Weather forecasts are derived from the NOAA NDFD. Like all things, this site belongs to Jesus Christ... He just trusts me to maintain it. If you have any questions or comments email webmaster@weatherforyou.com

Copyright © 2014, WeatherForYou.com LLC. All rights reserved.